Location: Mahannah Oil Field
(37.4664°N, 96.6003°W)
Time: 02:05:03
(UTC+00:00)

deb Explorer IX - Pass Details

Date: 29 January 2021
Orbit: 537 x 1102 km, 38.8° (Epoch: 25 February)

Event Time Altitude Azimuth Distance (km) Brightness Sun altitude
Rises 02:49:49 0° 285° (WNW) 3,579 ? -36.4°
Reaches altitude 10° 02:52:39 10° 281° (W) 2,541 ? -37.0°
Enters shadow 02:55:51 30° 267° (W) 1,448 ? -37.6°
Maximum altitude 02:58:28 54° 206° (SSW) 946 - -38.1°
Drops below altitude 10° 03:03:24 10° 129° (SE) 2,151 - -39.1°
Sets 03:05:38 0° 124° (SE) 2,985 - -39.5°
